This is the latest recevied weather packets stored in our database for station/object Hoechsten. If no packets are shown the sender has not sent any weather packets the latest 10 day(s).
| Time | Temp. | Humidity | Pressure | Rain* | Wind** | Luminosity | Snow |
|---|---|---|---|---|---|---|---|
| 1778256131 | 17.22° C | 48% | 1011.4 hPa | 0 mm | - | - | - |
| 1778254335 | 17.22° C | 51% | 1011.6 hPa | 0 mm | - | - | - |
| 1778252532 | 17.22° C | 49% | 1011.9 hPa | 0 mm | - | - | - |
| 1778250732 | 16.67° C | 53% | 1012.2 hPa | 0 mm | - | - | - |
| 1778248931 | 16.67° C | 56% | 1012.3 hPa | 0 mm | - | - | - |
| 1778247130 | 16.67° C | 60% | 1012.7 hPa | 0 mm | - | - | - |
| 1778245330 | 16.11° C | 60% | 1013 hPa | 0 mm | - | - | - |
| 1778243531 | 15.56° C | 65% | 1013.2 hPa | 0 mm | - | - | - |
| 1778241731 | 15° C | 67% | 1013.3 hPa | 0 mm | - | - | - |
| 1778239931 | 13.89° C | 70% | 1013.5 hPa | 0 mm | - | - | - |
| 1778238130 | 12.78° C | 74% | 1013.6 hPa | 0 mm | - | - | - |
| 1778236332 | 12.22° C | 74% | 1013.9 hPa | 0 mm | - | - | - |
| 1778234531 | 11.67° C | 74% | 1014.2 hPa | 0 mm | - | - | - |
| 1778232732 | 10.56° C | 71% | 1014.2 hPa | 0 mm | - | - | - |
| 1778230932 | 8.89° C | 67% | 1014.1 hPa | 0 mm | - | - | - |
| 1778229132 | 8.33° C | 63% | 1013.9 hPa | 0 mm | - | - | - |
| 1778227331 | 7.78° C | 61% | 1014 hPa | 0 mm | - | - | - |
| 1778225532 | 6.67° C | 63% | 1013.7 hPa | 0 mm | - | - | - |
| 1778223731 | 7.22° C | 63% | 1013.6 hPa | 0 mm | - | - | - |
| 1778221931 | 7.22° C | 64% | 1013.5 hPa | 0 mm | - | - | - |
| 1778220131 | 7.22° C | 61% | 1013.4 hPa | 0 mm | - | - | - |
| 1778218331 | 6.67° C | 60% | 1013.3 hPa | 0 mm | - | - | - |
| 1778216531 | 6.11° C | 60% | 1013.1 hPa | 0 mm | - | - | - |
| 1778214731 | 5.56° C | 61% | 1012.8 hPa | 0 mm | - | - | - |
| 1778212932 | 5.56° C | 62% | 1012.7 hPa | 0 mm | - | - | - |
* Rain since midnight (hover to see other rain measurements)
** Current wind speed in m/s (hover to see current wind gust speed)